Wind_Speed
8 8 7 8 10 12 16 18 19 19 19 18 16 15 13 12 9 5 2 0 2 3 4 5 5 5 5 4 4 4 5 5 6 6 6 6 7 7 7 7 7 6 6 6 5 5 5 4 4
8 7 6 7 9 12 15 17 19 20 19 18 18 16 15 13 10 7 4 2 0 2 4 6 6 5 5 5 4 3 3 4 4 4 5 6 6 7 7 7 7 7 6 6 6 5 5 4 4
7 7 6 6 8 11 13 16 18 19 18 18 18 17 16 14 12 8 6 3 1 2 4 5 6 6 6 5 4 3 3 3 3 3 4 5 6 6 7 7 7 7 6 6 6 5 5 4 4
5 5 5 6 7 9 12 14 16 16 17 18 18 18 16 14 13 10 7 4 2 3 5 6 6 7 6 6 5 4 3 2 2 2 3 4 5 6 6 7 7 7 6 6 6 5 4 4 4
5 4 4 5 6 7 10 13 15 16 16 18 18 18 17 15 13 11 8 6 4 3 5 7 8 8 8 7 6 5 3 2 2 1 2 3 4 5 6 6 6 6 6 6 5 5 4 4 3
5 5 4 5 5 6 8 11 14 15 15 16 17 18 18 16 15 13 10 7 5 4 4 6 8 9 8 8 7 6 4 3 3 1 1 2 4 4 5 5 6 6 5 5 4 4 3 3 3
5 6 5 5 4 5 7 10 12 14 15 16 16 17 18 17 16 15 12 9 5 4 4 6 8 9 9 9 8 7 6 5 3 2 1 1 3 4 4 5 5 5 5 4 4 4 3 3 3
7 7 6 6 5 6 8 9 11 12 14 15 16 17 18 18 18 16 14 11 7 5 5 6 8 10 10 10 10 9 8 7 5 4 2 1 2 3 4 4 4 4 4 4 3 3 3 2 2
8 8 7 7 7 7 8 8 9 10 12 14 15 17 18 19 18 17 15 11 9 7 7 7 8 10 11 11 11 10 9 8 7 5 4 3 2 3 4 4 4 4 3 3 3 3 3 2 1
9 9 9 9 10 10 9 9 8 8 11 13 15 17 18 19 19 18 16 13 10 8 7 7 9 11 12 12 12 11 11 10 8 7 5 4 3 3 4 4 3 3 3 3 3 3 2 2 1
10 9 10 11 12 12 10 9 8 8 10 13 15 18 20 20 20 19 17 14 11 9 7 7 9 10 12 13 13 13 13 12 10 8 7 6 4 4 4 3 3 3 2 2 3 3 2 2 1
10 11 11 12 13 12 11 9 9 9 10 12 14 17 20 21 20 18 16 14 11 9 9 9 9 10 12 13 14 14 14 14 12 11 9 7 6 5 4 3 3 3 2 2 3 3 3 2 2
9 10 10 10 11 12 11 9 9 9 10 12 14 16 19 20 19 18 18 15 13 10 8 8 10 12 13 14 14 14 15 15 14 13 10 9 7 5 4 4 3 3 3 2 3 3 3 2 2
9 9 9 9 11 11 10 9 9 9 10 12 13 16 18 19 19 18 17 16 14 11 7 8 9 12 13 14 15 15 15 16 16 14 12 11 9 7 6 5 5 4 3 3 3 3 3 2 2
10 9 9 9 11 11 10 9 9 9 10 12 13 16 17 17 17 18 18 15 13 10 7 8 9 12 13 14 15 16 16 17 17 16 15 13 12 9 7 7 6 5 5 4 4 3 2 2 2
11 10 10 10 12 13 12 11 11 10 10 12 14 15 16 17 17 18 17 14 13 11 10 10 9 11 14 15 16 16 16 17 18 18 16 15 13 11 10 8 7 6 6 5 3 3 2 2 2
13 12 12 12 13 14 14 12 11 11 12 13 14 15 16 17 17 18 17 14 13 11 10 10 9 9 12 15 15 16 18 19 18 18 17 17 15 13 12 10 8 8 7 5 4 3 3 3 3
15 14 13 13 15 16 16 14 12 12 12 13 14 15 16 17 17 17 16 15 13 11 10 9 8 8 11 14 15 16 18 19 18 17 18 17 16 14 13 11 10 9 8 7 5 4 3 3 3
16 15 15 15 17 18 18 16 15 13 13 13 14 15 16 17 17 17 17 15 14 12 11 9 8 8 9 12 15 16 18 19 19 18 19 18 17 15 14 12 11 10 9 8 7 5 4 3 3
16 16 16 17 20 20 19 17 16 15 14 14 14 14 15 16 17 17 17 16 15 13 10 8 7 7 10 12 15 17 19 20 19 18 19 18 18 17 15 13 12 12 11 9 8 7 5 4 4
17 17 18 19 21 21 20 18 16 15 14 14 13 14 14 15 16 16 16 15 14 13 11 10 9 9 10 11 12 15 16 18 19 18 19 18 18 17 16 15 13 13 12 11 10 8 7 6 5
17 18 19 20 21 21 20 18 15 15 14 13 13 13 13 15 16 16 16 15 14 13 11 8 7 8 10 11 12 14 15 16 17 19 20 19 18 17 16 16 14 14 14 13 12 10 9 8 8
18 20 20 21 21 20 19 18 15 14 14 14 14 14 14 15 15 15 15 15 14 12 10 7 6 7 9 11 12 13 14 15 18 19 19 19 19 18 18 17 16 15 15 14 13 12 11 10 9
19 20 21 21 20 19 18 17 14 13 13 14 14 15 14 14 14 14 14 14 13 11 9 7 6 6 7 10 11 11 13 15 17 19 20 20 19 19 19 19 17 17 16 16 15 14 14 13 12
20 20 21 20 19 17 16 15 13 12 12 12 12 13 12 12 12 12 13 13 12 11 9 7 7 7 8 9 10 11 12 14 16 18 19 20 20 19 20 19 19 18 18 18 17 16 16 15 15
20 20 19 19 17 15 14 13 12 11 11 11 11 10 11 10 11 12 13 12 12 11 9 8 7 7 8 8 9 11 12 14 15 16 18 20 21 21 20 20 20 19 19 19 18 18 18 17 17
20 19 18 18 17 15 14 13 11 11 11 11 11 10 10 10 10 11 11 11 11 11 9 8 7 8 8 9 10 12 13 14 15 16 17 19 21 21 21 21 21 21 20 20 20 19 19 19 19
20 19 18 17 16 15 14 12 12 12 10 10 10 10 10 11 11 11 11 11 11 11 10 8 8 7 8 8 9 11 13 14 15 17 18 18 20 21 21 20 20 21 21 21 21 21 21 21 21
20 19 19 18 17 16 15 13 12 12 11 11 12 12 11 11 11 11 11 11 10 10 9 7 7 7 6 7 8 10 11 13 13 15 17 18 19 20 20 20 20 20 20 21 21 22 22 23 23
22 20 19 18 17 17 16 15 13 13 12 12 11 11 10 9 10 10 10 10 10 9 9 7 7 7 6 7 7 8 9 12 13 14 15 15 16 18 19 20 20 20 19 20 21 22 23 23 24
Wind_Direction
45 50 53 60 60 57 54 51 48 44 39 36 33 33 33 31 29 32 33 299 207 210 203 198 196 189 183 167 147 127 115 102 87 71 58 46 39 33 31 30 27 24 26 31 37 42 45 47 51
38 42 47 48 52 52 50 50 50 46 41 35 31 30 29 25 22 21 16 21 150 219 222 212 205 196 191 182 168 144 129 111 94 74 58 45 36 32 28 26 26 26 29 33 36 39 42 43 46
31 35 36 34 43 48 49 50 50 47 43 39 34 28 23 19 13 11 8 359 342 229 224 216 205 200 197 196 190 175 160 129 106 79 55 39 31 28 26 25 26 27 30 34 35 35 36 40 44
24 21 26 31 35 43 45 47 49 46 41 36 29 22 17 15 11 6 2 347 317 244 224 215 207 201 201 203 201 191 179 156 126 86 43 29 25 25 25 24 26 27 28 30 32 33 34 41 47
9 359 3 12 23 32 37 40 41 40 38 32 25 20 16 12 8 2 357 343 318 250 222 217 212 207 208 207 205 203 196 184 170 113 34 19 18 21 23 22 22 24 24 25 29 31 36 41 47
352 348 346 355 11 23 27 30 32 35 32 26 20 17 14 10 3 358 353 342 317 270 237 223 211 209 212 209 207 206 205 199 184 168 34 15 10 13 17 17 16 18 19 21 24 26 33 37 43
333 335 331 335 346 358 8 19 24 31 28 23 17 11 6 4 0 354 349 339 314 279 252 223 212 213 213 211 210 209 210 208 203 206 235 353 357 359 7 10 10 10 14 20 22 24 25 28 36
324 319 318 321 318 337 353 5 14 24 24 20 13 6 1 357 356 353 345 336 319 280 256 230 217 217 216 212 210 211 214 217 215 218 223 265 335 342 346 352 355 355 3 13 18 15 14 19 34
317 311 313 314 313 323 335 350 6 19 20 15 8 1 357 354 352 349 343 332 318 287 257 240 226 218 214 213 213 213 215 219 220 221 226 252 295 316 322 328 334 337 347 358 6 3 2 4 29
314 309 310 308 306 310 321 337 352 7 12 7 1 357 352 350 347 344 342 335 322 297 268 246 230 221 215 215 215 216 217 218 220 222 229 244 264 289 299 309 320 326 333 341 351 353 347 343 356
315 308 311 305 303 304 311 323 337 356 3 1 357 354 349 345 343 342 338 335 324 305 278 252 235 225 216 217 217 218 218 217 219 221 227 236 250 267 278 289 302 310 313 325 337 334 322 319 320
314 312 311 307 301 299 305 312 324 342 353 354 352 351 349 345 343 341 338 331 322 308 286 250 241 231 222 219 218 220 219 218 219 221 223 229 239 251 264 270 282 290 290 303 321 316 300 292 283
310 309 311 307 295 291 295 300 313 329 340 344 343 346 344 344 343 339 336 330 323 308 286 262 240 232 229 225 223 220 219 220 219 221 223 226 231 241 252 262 270 272 272 284 303 297 288 278 268
302 303 304 298 288 287 290 302 310 321 330 339 342 340 340 340 338 335 331 326 319 309 286 267 240 231 228 228 224 220 219 218 217 218 222 225 227 232 243 253 256 256 259 272 286 286 278 268 263
294 294 293 288 284 287 290 298 307 314 323 329 333 336 338 338 337 335 331 325 317 308 296 274 248 236 226 225 222 217 218 218 219 218 221 224 224 228 235 242 248 253 254 266 278 277 271 267 261
285 283 280 280 279 285 288 290 295 304 314 322 328 334 338 339 337 334 331 325 315 306 298 284 260 240 232 224 219 217 216 216 218 219 221 220 222 226 229 234 242 251 254 259 263 265 263 264 258
277 275 273 270 276 282 288 286 288 300 308 315 323 333 338 338 337 335 334 329 322 312 304 290 272 253 233 225 220 216 216 215 217 220 221 220 221 223 226 230 237 244 251 255 258 266 267 262 256
272 273 269 265 270 278 281 282 289 298 306 314 320 329 334 335 336 336 334 327 321 314 304 300 281 254 227 226 223 220 218 218 217 219 218 219 220 221 224 227 234 240 245 248 250 258 262 252 247
271 271 269 266 270 275 280 282 290 297 305 311 316 323 326 329 331 332 332 327 322 314 307 295 286 254 230 229 224 220 218 217 217 219 217 217 218 218 221 226 231 235 239 241 242 244 245 241 237
271 269 267 265 270 275 280 285 292 295 300 305 312 317 321 323 327 326 329 327 324 319 311 306 289 254 236 228 223 219 219 217 216 217 217 217 218 218 220 226 230 231 235 236 237 236 237 238 234
268 266 264 265 270 277 282 288 293 296 301 306 311 316 319 321 323 323 325 326 322 316 307 298 290 260 231 223 223 218 220 219 216 216 216 216 217 219 221 225 228 229 234 237 236 234 235 235 236
263 263 264 268 271 275 285 290 291 293 298 303 307 309 315 316 318 321 322 322 319 313 307 305 289 253 231 227 224 221 222 219 215 217 218 219 218 221 225 226 229 232 235 236 235 233 235 236 238
258 261 266 270 273 278 284 289 295 291 294 296 299 304 310 311 315 319 319 318 317 313 309 301 279 258 238 232 228 223 220 218 219 219 219 221 222 224 227 228 230 232 234 235 235 235 236 237 240
256 261 266 270 275 279 285 289 295 294 294 295 297 304 308 307 310 315 317 317 317 314 307 296 279 268 257 246 237 226 223 222 222 222 223 224 224 226 228 229 230 232 234 236 237 237 237 239 242
255 259 263 268 275 281 282 286 293 296 295 298 301 304 303 305 307 311 314 317 317 315 309 295 281 276 267 254 240 230 231 229 226 223 223 224 226 228 228 230 231 233 236 238 238 239 240 241 244
252 255 260 267 274 277 280 286 291 294 294 298 304 306 303 306 309 311 315 315 320 318 307 294 282 277 270 259 244 237 236 232 226 225 224 225 228 229 228 231 234 236 239 240 240 242 243 244 247
244 249 256 262 269 275 282 286 286 288 292 295 303 307 309 309 309 309 311 314 320 317 309 295 286 281 273 261 249 240 237 234 230 229 227 227 229 230 230 233 237 240 242 243 244 244 245 247 249
237 241 248 257 266 275 282 288 291 292 291 293 302 309 312 311 308 303 301 304 309 314 309 298 292 290 278 267 256 241 235 232 235 233 231 232 231 230 232 234 238 241 243 244 246 247 248 249 251
233 238 245 251 261 272 281 290 293 295 297 298 301 305 308 309 302 298 295 296 301 308 307 302 297 297 287 273 261 244 236 233 236 233 233 233 232 232 233 235 239 243 245 246 247 249 251 252 253
233 238 243 251 261 268 276 286 292 297 299 299 301 305 306 306 304 299 296 294 300 303 304 309 308 302 289 271 256 243 235 235 237 235 232 235 237 235 235 238 241 244 246 248 250 251 255 256 257
Height
5879 5879 5880 5881 5881 5880 5878 5877 5875 5874 5874 5873 5872 5872 5872 5872 5872 5874 5872 5871 5871 5872 5872 5873 5875 5875 5876 5877 5878 5879 5880 5881 5882 5883 5884 5885 5885 5886 5886 5886 5886 5886 5886 5886 5886 5886 5886 5886 5886
5880 5881 5882 5882 5881 5880 5880 5878 5877 5876 5875 5874 5873 5873 5872 5872 5872 5872 5871 5871 5871 5872 5872 5873 5874 5875 5876 5877 5878 5879 5880 5881 5882 5883 5884 5885 5885 5886 5886 5886 5886 5886 5886 5886 5886 5886 5886 5887 5887
5882 5882 5883 5883 5882 5882 5881 5880 5879 5878 5877 5876 5875 5874 5873 5873 5872 5871 5871 5871 5871 5871 5872 5873 5873 5874 5875 5877 5878 5879 5880 5881 5882 5884 5884 5885 5885 5886 5886 5886 5886 5886 5886 5886 5887 5887 5887 5887 5887
5883 5884 5884 5884 5883 5883 5882 5881 5880 5879 5878 5877 5876 5875 5874 5873 5872 5871 5871 5870 5870 5870 5871 5872 5873 5874 5875 5876 5878 5879 5880 5881 5882 5884 5884 5885 5885 5886 5886 5886 5887 5887 5887 5887 5887 5887 5887 5887 5887
5884 5884 5885 5884 5883 5883 5882 5881 5881 5880 5879 5878 5877 5876 5874 5874 5873 5871 5870 5870 5870 5870 5870 5871 5871 5873 5874 5875 5877 5878 5880 5881 5882 5883 5884 5885 5885 5886 5886 5887 5887 5887 5887 5887 5887 5887 5887 5887 5887
5885 5885 5885 5884 5884 5883 5883 5882 5881 5881 5880 5878 5878 5876 5875 5874 5873 5871 5870 5869 5869 5869 5869 5869 5870 5872 5873 5875 5876 5877 5879 5880 5882 5883 5884 5885 5885 5886 5886 5887 5887 5887 5887 5887 5887 5887 5887 5887 5888
5886 5885 5884 5884 5884 5883 5883 5882 5881 5880 5880 5879 5878 5877 5875 5874 5872 5871 5869 5868 5868 5867 5868 5868 5869 5870 5872 5873 5875 5877 5878 5880 5881 5882 5883 5884 5885 5886 5887 5887 5887 5887 5887 5887 5887 5887 5888 5888 5888
5885 5885 5884 5884 5884 5883 5883 5881 5881 5880 5880 5879 5878 5877 5875 5873 5871 5870 5868 5867 5867 5867 5867 5867 5868 5869 5871 5872 5874 5875 5877 5879 5880 5882 5883 5884 5885 5886 5886 5887 5887 5887 5887 5887 5887 5887 5887 5887 5887
5885 5886 5884 5884 5884 5883 5882 5881 5880 5880 5880 5879 5878 5877 5875 5873 5871 5869 5867 5866 5865 5865 5865 5866 5866 5867 5869 5871 5872 5874 5876 5878 5880 5881 5882 5884 5884 5885 5886 5886 5887 5887 5887 5887 5887 5887 5887 5887 5887
5885 5884 5884 5884 5883 5883 5882 5881 5880 5880 5879 5879 5878 5876 5874 5872 5870 5868 5866 5864 5863 5862 5863 5863 5864 5865 5867 5869 5871 5873 5875 5876 5878 5880 5882 5883 5884 5884 5885 5886 5886 5887 5887 5887 5887 5887 5887 5887 5887
5884 5884 5883 5883 5882 5882 5881 5881 5880 5879 5878 5878 5877 5876 5873 5871 5869 5866 5864 5863 5861 5860 5860 5861 5862 5863 5865 5867 5868 5870 5873 5875 5877 5879 5880 5882 5883 5884 5884 5885 5886 5886 5886 5887 5887 5886 5886 5887 5887
5883 5883 5882 5882 5881 5881 5881 5880 5880 5879 5878 5877 5876 5875 5872 5870 5867 5865 5863 5861 5859 5858 5858 5858 5859 5861 5862 5864 5866 5868 5871 5873 5875 5877 5879 5880 5882 5883 5884 5884 5885 5885 5886 5886 5886 5886 5886 5886 5886
5882 5882 5881 5880 5880 5880 5880 5879 5879 5878 5877 5876 5875 5873 5871 5869 5867 5864 5861 5859 5857 5856 5856 5855 5856 5858 5860 5862 5864 5866 5869 5871 5873 5875 5877 5879 5880 5882 5883 5884 5884 5885 5885 5886 5886 5885 5885 5886 5886
5880 5880 5879 5879 5879 5878 5879 5878 5877 5877 5876 5875 5874 5872 5870 5867 5865 5862 5859 5857 5854 5853 5853 5853 5854 5856 5857 5859 5861 5863 5866 5868 5871 5873 5875 5877 5879 5880 5882 5883 5884 5884 5884 5885 5885 5885 5885 5885 5885
5878 5878 5878 5878 5877 5877 5877 5877 5876 5875 5875 5874 5872 5870 5868 5865 5863 5860 5857 5854 5852 5850 5850 5850 5851 5852 5854 5856 5858 5860 5863 5866 5868 5871 5873 5875 5877 5879 5880 5881 5882 5883 5884 5884 5884 5884 5884 5885 5885
5876 5876 5876 5876 5875 5875 5876 5876 5875 5874 5873 5872 5871 5868 5866 5863 5860 5858 5855 5852 5850 5847 5847 5847 5847 5849 5850 5853 5855 5857 5860 5863 5865 5868 5870 5873 5875 5877 5879 5880 5881 5882 5883 5884 5884 5884 5884 5884 5884
5874 5874 5874 5874 5873 5873 5873 5873 5873 5872 5871 5870 5868 5866 5864 5861 5858 5856 5853 5851 5848 5846 5845 5844 5844 5845 5847 5849 5851 5854 5857 5860 5862 5865 5867 5870 5873 5875 5877 5878 5880 5881 5882 5883 5883 5883 5884 5884 5884
5872 5872 5872 5872 5871 5871 5870 5871 5871 5870 5869 5868 5866 5864 5862 5859 5856 5854 5852 5849 5847 5844 5843 5842 5842 5842 5844 5847 5849 5851 5854 5857 5860 5862 5865 5868 5870 5873 5875 5876 5878 5879 5881 5882 5882 5882 5883 5883 5884
5869 5869 5870 5869 5868 5868 5868 5868 5868 5867 5867 5865 5863 5862 5860 5858 5855 5853 5850 5848 5846 5844 5841 5841 5840 5840 5842 5844 5847 5849 5852 5854 5857 5860 5862 5865 5868 5870 5873 5875 5876 5878 5879 5880 5881 5882 5882 5882 5883
5866 5867 5867 5867 5866 5865 5865 5865 5865 5864 5864 5863 5861 5860 5857 5856 5854 5852 5849 5847 5845 5842 5840 5839 5839 5838 5840 5842 5844 5846 5848 5851 5854 5857 5860 5863 5866 5868 5870 5873 5874 5876 5878 5879 5880 5881 5881 5882 5882
5863 5864 5864 5863 5863 5862 5862 5863 5862 5861 5860 5860 5859 5857 5856 5854 5852 5850 5848 5845 5843 5841 5839 5837 5836 5837 5838 5839 5841 5843 5846 5848 5851 5854 5857 5860 5863 5866 5868 5870 5872 5874 5876 5877 5878 5879 5880 5881 5881
5860 5860 5860 5860 5860 5860 5860 5859 5860 5858 5858 5857 5856 5854 5853 5852 5850 5848 5847 5845 5842 5840 5837 5835 5834 5834 5836 5838 5839 5841 5844 5847 5849 5852 5855 5858 5860 5863 5865 5868 5870 5872 5873 5875 5876 5878 5878 5879 5880
5856 5856 5857 5857 5857 5857 5856 5856 5857 5855 5855 5854 5853 5852 5851 5849 5848 5846 5845 5844 5841 5839 5837 5835 5834 5834 5835 5836 5837 5839 5842 5844 5846 5849 5852 5855 5858 5860 5863 5865 5867 5869 5871 5873 5874 5875 5876 5878 5878
5852 5853 5853 5854 5854 5854 5854 5853 5854 5852 5852 5851 5850 5849 5848 5847 5845 5844 5843 5842 5840 5838 5836 5835 5834 5833 5834 5835 5836 5837 5839 5841 5844 5846 5849 5852 5854 5857 5860 5862 5864 5866 5868 5870 5871 5873 5874 5875 5876
5848 5850 5850 5851 5851 5851 5851 5851 5851 5850 5849 5848 5847 5846 5845 5844 5843 5842 5841 5840 5839 5837 5835 5834 5833 5832 5832 5832 5833 5834 5837 5839 5841 5843 5846 5849 5851 5854 5856 5859 5861 5863 5865 5867 5868 5870 5871 5873 5874
5844 5846 5847 5848 5848 5848 5848 5848 5849 5848 5847 5846 5845 5844 5843 5842 5842 5841 5840 5839 5838 5836 5834 5833 5832 5831 5830 5831 5831 5833 5834 5836 5838 5840 5843 5845 5847 5850 5852 5855 5857 5859 5861 5863 5865 5866 5868 5869 5870
5840 5841 5843 5844 5844 5845 5845 5846 5846 5845 5845 5844 5843 5843 5842 5841 5840 5840 5839 5838 5837 5835 5834 5832 5831 5830 5829 5829 5829 5830 5832 5833 5835 5837 5839 5841 5844 5846 5848 5851 5853 5855 5857 5859 5861 5863 5864 5865 5867
5836 5838 5839 5840 5841 5842 5842 5843 5843 5843 5842 5842 5842 5841 5840 5840 5839 5838 5837 5837 5836 5834 5832 5830 5829 5828 5827 5827 5827 5828 5829 5830 5832 5834 5836 5838 5840 5842 5844 5846 5849 5851 5853 5855 5857 5858 5860 5861 5862
5832 5834 5835 5837 5838 5839 5839 5842 5841 5840 5840 5840 5840 5839 5838 5838 5837 5836 5836 5835 5834 5832 5831 5828 5827 5826 5825 5825 5825 5826 5827 5828 5829 5831 5833 5834 5836 5838 5840 5843 5845 5847 5849 5850 5852 5854 5855 5856 5857
5827 5829 5832 5834 5835 5835 5836 5840 5838 5838 5838 5837 5837 5837 5836 5836 5835 5834 5834 5833 5832 5830 5829 5827 5826 5824 5824 5824 5824 5824 5825 5826 5826 5828 5829 5831 5833 5835 5837 5839 5841 5843 5844 5846 5848 5849 5850 5851 5852